Home > Weather > Istres > Past weeks

Flag for France Weather for the Past 2 Weeks in Istres, France

Now
46 °F

Passing clouds.


Feels Like: 44 °F
Forecast: 40 / 59 °F
Wind: 6 mph from Northeast

Location: Istres Airport

Current Time: Feb 12, 2016 at 7:32:09 PM

Latest Report: Feb 12, 2016 at 7:00 PM


Visibility: N/A

Pressure: 29.53 "Hg

Humidity: 87%

Dew point: 43 °F

Location of IstresLocation

Historic Weather in Istres — Graph

°F

Istres Temperature Yesterday

Maximum temperature yesterday: 52 °F (at 1:00 PM)
Minimum temperature yesterday: 32 °F (at 6:30 AM)
Average temperature yesterday: 43 °F

High & Low Weather Summary for the Past Weeks

 TemperatureHumidityPressure
High68 °F (Feb 1, 2:00 PM)100% (Jan 29, 5:30 AM)30.51 "Hg (Jan 29, 5:30 AM)
Low32 °F (Feb 11, 6:30 AM)29% (Feb 3, 3:00 PM)29.47 "Hg (Feb 12, 3:30 PM)
Average51 °F74%30.12 "Hg
* Reported Jan 28 6:00 PM — Feb 12 6:30 PM, Istres, Weather by CustomWeather, © 2016

Note: Actual official high and low records may vary slightly from our data, if they occured in-between our weather recording intervals... More about our weather records

Advertising

Istres Weather History for the Previous 24 Hours

 ConditionsComfort  
Time TempWeatherWind HumidityBarometerVisibility
6:30 PM
Fri, Feb 12
46 °FPassing clouds.3 mph93%29.50 "HgN/A
6:00 PM48 °FPassing clouds.7 mph94%29.50 "HgN/A
5:30 PM50 °FBroken clouds.8 mph88%29.50 "HgN/A
5:00 PM52 °FOvercast.10 mph88%29.50 "HgN/A
4:30 PM52 °FMore clouds than sun.13 mph88%29.50 "HgN/A
4:00 PM55 °FMore clouds than sun.13 mph77%29.47 "HgN/A
3:30 PM55 °FPartly sunny.12 mph88%29.47 "HgN/A
3:00 PM54 °FPartly sunny.8 mph94%29.50 "HgN/A
2:30 PM52 °FBroken clouds.9 mph100%29.50 "HgN/A
2:00 PM48 °FLight rain. Broken clouds.1 mph94%29.53 "Hg5 mi
1:30 PM48 °FLight rain. Mostly cloudy.5 mph94%29.53 "Hg4 mi
1:00 PM46 °FLight rain. Mostly cloudy.13 mph93%29.53 "HgN/A
12:30 PM45 °FLight rain. Mostly cloudy.14 mph93%29.56 "Hg5 mi
12:00 PM45 °FLight rain. Mostly cloudy.8 mph93%29.56 "HgN/A
11:30 AM45 °FLight rain. Mostly cloudy.13 mph87%29.59 "Hg4 mi
11:00 AM45 °FLight rain. Fog.12 mph87%29.62 "Hg3 mi
10:30 AM45 °FLight rain. Fog.10 mph87%29.62 "Hg3 mi
10:00 AM43 °FLight rain. Fog.10 mph93%29.62 "Hg3 mi
9:30 AM43 °FLight rain. Overcast.9 mph93%29.65 "HgN/A
9:00 AM43 °FOvercast.8 mph93%29.65 "HgN/A
8:30 AM43 °FLight rain. Partly sunny.8 mph93%29.68 "Hg4 mi
8:00 AM43 °FMostly cloudy.6 mph93%29.71 "HgN/A
7:30 AM41 °FPassing clouds.6 mph93%29.71 "HgN/A
7:00 AM39 °FClear.3 mph93%29.71 "Hg10 mi
6:30 AM39 °FLight rain. Clear.2 mph93%29.71 "HgN/A
6:00 AM39 °FClear.No wind87%29.74 "Hg10 mi
5:30 AM39 °FClear.No wind87%29.74 "Hg10 mi
5:00 AM37 °FClear.No wind93%29.74 "Hg10 mi
4:30 AM37 °FClear.3 mph93%29.74 "Hg10 mi
4:00 AM39 °FClear.3 mph87%29.74 "Hg10 mi
3:30 AM39 °FClear.No wind87%29.74 "Hg10 mi
3:00 AM39 °FClear.3 mph87%29.77 "Hg10 mi
2:30 AM39 °FClear.3 mph87%29.80 "Hg10 mi
2:00 AM39 °FClear.No wind87%29.80 "Hg10 mi
1:30 AM41 °FClear.5 mph87%29.80 "Hg10 mi
1:00 AM41 °FClear.8 mph87%29.80 "Hg10 mi
12:30 AM41 °FClear.8 mph87%29.80 "Hg10 mi
12:00 AM43 °FClear.9 mph87%29.80 "Hg10 mi
11:00 PM
Thu, Feb 11
45 °FClear.8 mph81%29.80 "Hg10 mi
10:30 PM46 °FClear.9 mph76%29.80 "Hg10 mi
10:00 PM48 °FClear.16 mph71%29.80 "Hg10 mi
9:30 PM48 °FClear.15 mph76%29.80 "Hg10 mi
9:00 PM46 °FClear.13 mph82%29.80 "Hg10 mi
8:30 PM46 °FPassing clouds.8 mph87%29.80 "HgN/A
8:00 PM48 °FPassing clouds.6 mph82%29.80 "HgN/A
7:30 PM46 °FPassing clouds.No wind87%29.80 "HgN/A
7:00 PM48 °FPassing clouds.5 mph82%29.80 "HgN/A
Weather by CustomWeather, © 2016

See weather overviewHow to use our weather pages